| time (UTC) | temp C | wind direction | speed KPH | gust KPH | rain 1hr cm | rain 24hr cm | rain mn cm | humidity % | barometer mb |
| 20260503025211 | 8 | 9 | 3.2 | 3.2 | 0.00 | 0.00 | 0.00 | 99 | 1009.4 |
| 20260503023706 | 8 | 20 | 0.0 | 1.6 | 0.00 | 0.00 | 0.00 | 99 | 1009.6 |
| 20260503022205 | 8 | 41 | 0.0 | 3.2 | 0.00 | 0.00 | 0.00 | 99 | 1009.8 |
| 20260503020702 | 8 | 99 | 0.0 | 3.2 | 0.00 | 0.00 | 0.00 | 98 | 1009.5 |
| 20260503015158 | 8 | 40 | 1.6 | 4.8 | 0.00 | 0.00 | 0.00 | 98 | 1009.8 |
| 20260503013655 | 8 | 63 | 0.0 | 1.6 | 0.00 | 0.00 | 0.00 | 98 | 1010.0 |
| 20260503012152 | 9 | 90 | 0.0 | 4.8 | 0.00 | 0.00 | 0.00 | 98 | 1009.9 |
| 20260503010647 | 9 | 138 | 4.8 | 4.8 | 0.00 | 0.00 | 0.00 | 97 | 1009.9 |
| 20260503005145 | 9 | 77 | 3.2 | 6.4 | 0.00 | 0.00 | 0.00 | 97 | 1009.6 |
| 20260503003642 | 9 | 123 | 1.6 | 4.8 | 0.00 | 0.00 | 0.00 | 97 | 1009.7 |
| 20260503002138 | 9 | 35 | 0.0 | 4.8 | 0.00 | 0.00 | 0.00 | 96 | 1009.8 |
| 20260503000634 | 9 | 77 | 3.2 | 4.8 | 0.00 | 0.00 | 0.00 | 96 | 1009.7 |
| 20260502235132 | 9 | 110 | 3.2 | 4.8 | 0.00 | 0.00 | 0.00 | 95 | 1009.7 |
| 20260502233632 | 10 | 106 | 0.0 | 4.8 | 0.00 | 0.00 | 0.00 | 95 | 1009.8 |
| 20260502232129 | 10 | 45 | 3.2 | 4.8 | 0.00 | 0.00 | 0.00 | 95 | 1009.8 |
| 20260502230627 | 10 | 99 | 0.0 | 3.2 | 0.00 | 0.00 | 0.00 | 94 | 1009.8 |
| 20260502225124 | 10 | 154 | 3.2 | 4.8 | 0.00 | 0.00 | 0.00 | 94 | 1009.9 |
| 20260502223621 | 10 | 264 | 1.6 | 4.8 | 0.00 | 0.00 | 0.00 | 93 | 1009.7 |
| 20260502222118 | 10 | 325 | 0.0 | 8.0 | 0.00 | 0.00 | 0.00 | 93 | 1009.9 |
| 20260502220614 | 10 | 0 | 1.6 | 3.2 | 0.00 | 0.00 | 0.00 | 92 | 1009.7 |
| 20260502215110 | 10 | 68 | 0.0 | 4.8 | 0.00 | 0.00 | 0.00 | 92 | 1009.6 |
| 20260502213607 | 10 | 16 | 0.0 | 4.8 | 0.00 | 0.00 | 0.00 | 91 | 1009.3 |
| 20260502212107 | 10 | 66 | 1.6 | 4.8 | 0.00 | 0.00 | 0.00 | 90 | 1009.5 |
| 20260502210602 | 10 | 60 | 0.0 | 3.2 | 0.00 | 0.00 | 0.00 | 91 | 1009.7 |
| 20260502205059 | 10 | 216 | 3.2 | 9.7 | 0.00 | 0.00 | 0.00 | 90 | 1009.9 |
| 20260502203556 | 10 | 203 | 4.8 | 6.4 | 0.00 | 0.00 | 0.00 | 90 | 1009.8 |
| 20260502202053 | 10 | 250 | 4.8 | 9.7 | 0.00 | 0.00 | 0.00 | 90 | 1010.2 |
| 20260502200553 | 10 | 162 | 1.6 | 6.4 | 0.00 | 0.00 | 0.00 | 90 | 1010.2 |
| 20260502195051 | 10 | 184 | 3.2 | 11.3 | 0.00 | 0.00 | 0.00 | 91 | 1010.4 |
| 20260502193547 | 10 | 66 | 3.2 | 12.9 | 0.00 | 0.00 | 0.00 | 89 | 1010.4 |
| 20260502192043 | 11 | 225 | 4.8 | 6.4 | 0.00 | 0.00 | 0.00 | 89 | 1010.8 |
| 20260502190541 | 11 | 206 | 8.0 | 11.3 | 0.00 | 0.00 | 0.00 | 86 | 1010.5 |
| 20260502185036 | 11 | 178 | 4.8 | 9.7 | 0.00 | 0.00 | 0.00 | 85 | 1010.7 |
| 20260502183536 | 11 | 118 | 4.8 | 4.8 | 0.00 | 0.00 | 0.00 | 83 | 1010.8 |
| 20260502182035 | 11 | 147 | 3.2 | 8.0 | 0.00 | 0.00 | 0.00 | 80 | 1010.9 |
| 20260502180534 | 11 | 158 | 3.2 | 8.0 | 0.00 | 0.00 | 0.00 | 79 | 1011.1 |
| 20260502163519 | 10 | 223 | 12.9 | 20.9 | 0.00 | 0.00 | 0.00 | 83 | 1011.6 |
| 20260502162015 | 12 | 90 | 0.0 | 12.9 | 0.00 | 0.00 | 0.00 | 81 | 1011.4 |
| 20260502160512 | 11 | 197 | 3.2 | 9.7 | 0.00 | 0.00 | 0.00 | 82 | 1011.6 |
| 20260502152004 | 11 | 209 | 1.6 | 9.7 | 0.00 | 0.00 | 0.00 | 82 | 1012.1 |
| 20260502150501 | 14 | 192 | 1.6 | 4.8 | 0.00 | 0.00 | 0.00 | 75 | 1011.4 |
| 20260502130433 | 11 | 262 | 6.4 | 14.5 | 0.00 | 0.00 | 0.00 | 83 | 1012.3 |
| 20260502123428 | 10 | 157 | 0.0 | 11.3 | 0.00 | 0.00 | 0.00 | 86 | 1012.5 |
| 20260502121925 | 10 | 74 | 0.0 | 11.3 | 0.00 | 0.00 | 0.00 | 86 | 1012.1 |
| 20260502120421 | 10 | 245 | 6.4 | 16.1 | 0.00 | 0.00 | 0.00 | 86 | 1012.2 |
| 20260502114917 | 10 | 197 | 4.8 | 11.3 | 0.00 | 0.00 | 0.00 | 88 | 1012.2 |
| 20260502113415 | 10 | 237 | 8.0 | 8.0 | 0.00 | 0.00 | 0.00 | 86 | 1011.9 |
| 20260502111914 | 9 | 210 | 6.4 | 9.7 | 0.00 | 0.00 | 0.00 | 85 | 1011.9 |
| 20260502110411 | 9 | 209 | 4.8 | 8.0 | 0.00 | 0.00 | 0.00 | 85 | 1011.8 |
| 20260502104909 | 9 | 180 | 0.0 | 6.4 | 0.00 | 0.00 | 0.00 | 86 | 1011.8 |
| 20260502103407 | 9 | 203 | 1.6 | 12.9 | 0.00 | 0.00 | 0.00 | 86 | 1011.5 |
| 20260502101903 | 8 | 225 | 0.0 | 8.0 | 0.00 | 0.00 | 0.00 | 85 | 1011.5 |
| 20260502100359 | 8 | 319 | 3.2 | 8.0 | 0.00 | 0.00 | 0.00 | 84 | 1011.4 |
| 20260502090349 | 8 | 274 | 4.8 | 14.5 | 0.00 | 0.00 | 0.00 | 79 | 1011.4 |
| 20260502070338 | 9 | 147 | 0.0 | 4.8 | 0.00 | 0.00 | 0.00 | 75 | 1011.1 |
| 20260502064838 | 10 | 222 | 4.8 | 6.4 | 0.00 | 0.00 | 0.00 | 74 | 1011.2 |
| 20260502063336 | 10 | 180 | 1.6 | 11.3 | 0.00 | 0.00 | 0.00 | 73 | 1011.5 |
| 20260502061836 | 10 | 235 | 6.4 | 11.3 | 0.00 | 0.00 | 0.00 | 76 | 1011.5 |
| 20260502060335 | 10 | 209 | 6.4 | 6.4 | 0.00 | 0.00 | 0.00 | 77 | 1011.6 |
| 20260502054831 | 9 | 199 | 0.0 | 9.7 | 0.00 | 0.00 | 0.00 | 77 | 1011.5 |
| 20260502053328 | 10 | 158 | 4.8 | 6.4 | 0.00 | 0.00 | 0.00 | 75 | 1011.7 |
| 20260502051827 | 10 | 159 | 3.2 | 8.0 | 0.00 | 0.00 | 0.00 | 73 | 1011.8 |
| 20260502050323 | 10 | 198 | 3.2 | 8.0 | 0.00 | 0.00 | 0.00 | 72 | 1011.6 |
| 20260502044820 | 10 | 213 | 3.2 | 4.8 | 0.00 | 0.00 | 0.00 | 73 | 1011.7 |
| 20260502043317 | 10 | 180 | 0.0 | 8.0 | 0.00 | 0.00 | 0.00 | 74 | 1011.9 |
| 20260502041817 | 10 | 180 | 1.6 | 6.4 | 0.00 | 0.00 | 0.00 | 74 | 1011.7 |
| 20260502040314 | 10 | 238 | 4.8 | 8.0 | 0.00 | 0.00 | 0.00 | 74 | 1011.6 |
| 20260502034810 | 10 | 199 | 3.2 | 3.2 | 0.00 | 0.00 | 0.00 | 74 | 1011.8 |
| 20260502033309 | 10 | 225 | 3.2 | 6.4 | 0.00 | 0.00 | 0.00 | 73 | 1011.8 |
| 20260502031806 | 10 | 195 | 4.8 | 6.4 | 0.00 | 0.00 | 0.00 | 72 | 1011.7 |
| 20260502030306 | 10 | 259 | 4.8 | 8.0 | 0.00 | 0.00 | 0.00 | 71 | 1011.5 |